Regional Weather Roundup
Issued by NWS Wakefield, VA

Home | Current Version | Previous Version | Text Only | Print | Product List | Glossary On
Versions: 1 2 3 4 5 6 7 8 9 10 11 12 13 14 15 16 17 18 19 20 21 22 23 24 25 26 27 28 29 30 31 32 33 34 35 36 37 38 39 40 41 42 43 44 45 46 47 48 49 50
000
ASUS41 KAKQ 012315
RWRAKQ

REGIONAL WEATHER ROUNDUP
NATIONAL WEATHER SERVICE WAKEFIELD VA
700 PM EDT WED JUL 01 2015

Note: "fair" indicates few or no clouds below 12,000 feet with no
significant weather and/or obstructions to visibility. * = Denotes
station may not report precipitation (e.g., rain,snow,etc.),
thunder or fog.

VAZ042-051-052>054-056-020000-
NORTHERN VIRGINIA

CITY           SKY/WX    TMP DP  RH WIND       PRES   REMARKS
WASH NATIONAL  PTSUNNY   82  69  64 S3        29.84R
DULLES         PTSUNNY   83  65  54 NW7       29.84S
FORT BELVOIR   MOSUNNY   84  67  56 S5        29.83S
QUANTICO       SUNNY     85  65  51 W8        29.84S
FREDERICKSBRG* MOSUNNY   86  68  55 S6        29.83S
STAFFORD*      SUNNY     79  67  65 CALM      29.89R
WARRENTON      PTSUNNY   82  71  69 CALM      29.85R
CULPEPER*      PTSUNNY   82  68  62 SW3       29.86R
MANASSAS*      SUNNY     82  68  61 SW7       29.84S
LEESBURG*      SUNNY     82  64  54 NW12      29.86R
WINCHESTER     SUNNY     81  61  50 NW6       29.87S
FRONT ROYAL*   FAIR      81  61  50 NW3       29.85S
LURAY*         FAIR      84  61  45 NW3       29.87R
$$

VAZ048-049-060>072-079>083-020000-
CENTRAL AND SOUTH CENTRAL VIRGINIA

CITY           SKY/WX    TMP DP  RH WIND       PRES   REMARKS
RICHMOND       MOSUNNY   85  66  53 SW10      29.87R
CHESTERFIELD*  NOT AVBL
PETERSBURG*    SUNNY     84  74  72 S3        29.89R
HANOVER        SUNNY     84  66  54 SW10      29.88R
TAPPAHANNOCK*  SUNNY     83  65  54 CALM      29.87S
QUINTON*       FAIR      83  69  61 CALM      29.86S
CHARLOTTSVILLE SUNNY     82  65  56 SW8       29.86S
GORDONSVILLE*  FAIR      82  66  57 S6        29.85S
ORANGE*        SUNNY     82  66  57 S7        29.87S
LOUISA*        SUNNY     82  68  61 SW3       29.85S
BUMPASS*       FAIR      82  68  63 SW3       29.86R
FARMVILLE*     MOSUNNY   83  67  58 S7        29.87S
CREWE*         FAIR      83  69  61 CALM      29.88S
FORT PICKETT*  FAIR      83  68  60 SW7       29.89S
CHASE CITY*    FAIR      85  70  60 CALM      29.89F
CLARKSVILLE*   FAIR      81  70  69 S3        29.89F
SOUTH HILL*    SUNNY     82  70  67 CALM      29.96R
LAWRENCEVILLE* NOT AVBL
EMPORIA*         N/A     81  70  69 CALM      29.91R
$$

VAZ088>098-020000-
SOUTHEAST VIRGINIA

CITY           SKY/WX    TMP DP  RH WIND       PRES   REMARKS
NORFOLK        SUNNY     85  63  47 W8        29.88R
VIRGINIA BEACH SUNNY     86  65  49 SW12      29.88R
NORFOLK NAVAL  MOSUNNY   83  66  56 W10       29.90R
WEST POINT*    SUNNY     86  66  51 SW6       29.87S
SALUDA*        FAIR      83  69  62 SW7       29.86S
NEWPORT NEWS   SUNNY     83  69  62 SW12      29.88R
LANGLEY AFB    SUNNY     83  67  57 SW13      29.86S
FORT EUSTIS    SUNNY     83  69  62 SW8       29.86S
WILLIAMSBURG*  SUNNY     88  72  58 SW7       29.88S
HR EXEC AP*    FAIR      82  70  65 SW6       29.91R
FRANKLIN*      SUNNY     83  69  62 SW5       29.90R
WAKEFIELD      SUNNY     83  69  62 SW5       29.88S
$$

VAZ020-022-025-037-045-020000-
WEST CENTRAL AND SOUTHWEST VIRGINIA

CITY           SKY/WX    TMP DP  RH WIND       PRES   REMARKS
STAUNTON*      SUNNY     83  59  43 W7        29.91S
WAYNESBORO*    FAIR      80  59  49 SW6       29.91S
HOT SPRINGS VA SUNNY     70  60  70 W6        30.03S
LYNCHBURG      SUNNY     79  66  64 SW6       29.91S
DANVILLE       PTSUNNY   82  70  66 S5        29.90S
SOUTH BOSTON*  FAIR      81  71  71 MISG      29.89F
MARTINSVILLE   CLOUDY    80  70  70 CALM      29.95R
ROANOKE        CLOUDY    81  65  58 W5        29.93S
BLACKSBURG     CLOUDY    74  66  76 CALM      30.01R
DUBLIN*        CLOUDY    74  69  83 SW6       30.00R
MARION*        CLOUDY    73  65  78 W10G17    30.04S
HILLSVILLE*    CLOUDY    73  63  70 SW6       30.01S
RICHLANDS*     FAIR      71  66  85 SW9G18    30.03S
WISE*          CLOUDY    68  68 100 SW9       30.04F
ABINGDON*      CLOUDY    71  69  95 W3        30.02S FOG
$$

MDZ021>025-VAZ099-100-020000-
SOUTHERN MARYLAND AND THE DELMARVA PENINSULA

CITY           SKY/WX    TMP DP  RH WIND       PRES   REMARKS
PATUXENT RIVER MOSUNNY   83  67  58 SW7       29.84S
BAY BRIDGE APT   N/A     81  66  61 S3        29.84R
LEONARDTOWN    SUNNY     82  64  54 SW6       29.86S
DOVER          MOSUNNY   83  68  61 SW9       29.82R
GEORGETOWN     SUNNY     82  67  60 SW8       29.85R
EASTON         SUNNY     84  68  58 SW6       29.87S
CAMBRIDGE      MOSUNNY   82  66  57 S5        29.84R
SALISBURY      SUNNY     82  69  64 SW7       29.85S
OCEAN CITY     SUNNY     83  65  54 SW9       29.85R
WALLOPS ISLAND SUNNY     82  68  62 SW8       29.86S
ACCOMACK*      SUNNY     82  72  69 SW7       29.87R
$$

NCZ012>017-030>032-020000-
NORTH CENTRAL AND EASTERN NORTH CAROLINA

CITY           SKY/WX    TMP DP  RH WIND       PRES   REMARKS
ROANOKE RAPIDS FAIR      82  70  65 SW9       29.90S
RALEIGH        CLOUDY    83  68  60 SW8       29.92S
ELIZABETH CITY SUNNY     83  69  62 SW5       29.90R
AHOSKIE*       SUNNY     79  73  80 CALM      29.91R
EDENTON*         N/A     85  68  56 SW7       29.90S
CURRITUCK*     SUNNY     85  65  52 CALM      29.90S
KILL DEVIL HLS SUNNY     86  68  54 SW7       29.90S
MANTEO         MOSUNNY   84  75  74 SW15      29.91S
CAPE HATTERAS  SUNNY     80  74  81 SW10G20   29.93S
TARBORO*         N/A     85  66  53 SW6       29.92R
GOLDSBORO      SUNNY     83  71  68 SW6       29.92R
WASHINGTON     SUNNY     83  70  63 SW9       29.92S
GREENVILLE     SUNNY     82  72  69 SW7       29.94R
NEW BERN       SUNNY     84  73  69 W7        29.93S
WILMINGTON     SUNNY     82  73  74 S10       29.94S
$$

VAZ048-020000-
ELSEWHERE

CITY           SKY/WX    TMP DP  RH WIND       PRES   REMARKS
HARRISBURG PA  PTSUNNY   78  58  49 W9        29.83R
BALTIMORE      PTSUNNY   82  64  54 W5        29.83R
ANNAPOLIS      CLOUDY    82  67  60 W8        29.83R
ANDREWS AFB    DRIZZLE   77  70  78 VRB1      29.84R
PHILADELPHIA   PTSUNNY   84  60  44 W12       29.82R
HENDERSON NC   MOSUNNY   82  65  57 S6        29.91S
GREENSBORO     CLOUDY    84  62  47 S7        29.92S
ROCKY MOUNT    SUNNY     85  69  58 S7        29.91R
$$

VAZ100-020000-
MARINE

STATION/POSITION TIME  TEMP    WIND        PRES    WAVE   SWELL
                       AIR SEA DIR/SP/G            HT/PER HT/PER
                 (UTC) (F)     (DEG/KT/KT) (MB)    (FT/S) (FT/S)
BRANDYWINE LGT   2200   81 75  250/ 11/ 12 1010.2F
CAPE MAY NJ      2200   79 80  260/  7/  8 1009.7F
LEWES DE         2200   85 72  260/  9/ 11 1010.1F
15NM E FENWICK I 2250   75 74              1010.2S   4/ 8
OCEAN-CITY-INLET 2200   82 74  270/  8/ 11 1010.4S
WACHAPREAGUE VA  2200   85 84  240/  5/  9 1011.3F
THOMAS POINT MD  2200   81 78  200/  8/  9 1010.4
GOOSES REEF MD   2300   83 79  210/  6/  8 1011.5R
COVE POINT MD    2200   83     240/ 11/ 13 1011.0F
SOLOMONS ISLAND  2200      79                N/A
BISHOPS HEAD MD  2200   83     220/ 10/ 12 1010.3F
PINEY POINT MD   2200          260/  7/  9   N/A
CAMBRIDGE MD     2200   84 79  220/  8/ 11 1010.1F
LEWISETTA VA     2200   84 82  230/  8/  9 1010.4F
RAPPAHANNOCK LGT 2200          230/ 13/ 14 1011.5F
STINGRAY PT      2300   84 82  240/  8/ 10 1011.3R   1/ 2
YORK RVR RNG VA  2200   84     250/ 15/ 16 1010.7F
YORKTOWN VA      2200   84 81  230/  7/ 11 1011.1F
JAMESTOWN VA     2300   83 83  210/  8/ 10   N/A
DOMINION TERM VA 2200   84     250/ 12/ 14 1011.5F
KIPTOPEKE VA     2200      85  250/ 11/ 13   N/A
CHES BAY BRIDGE  2200   84 79  230/ 12/ 13 1011.0F
CAPE HENRY VA    2200   86     220/  6/ 10 1009.9F
CHESAPEAKE LGHT  2200   81     200/  6/  7 1012.3F
WILLOUBY STN VA  2200   83     250/ 11/ 12 1012.4F
CAPE HENRY BUOY  2228      80                N/A     3/ 8
1ST LANDING BUOY 2300      79              1011.6R   2/ 4
CAPE CHARLES BUO 2226      79                N/A     3/ 8   3/ 8
OFFSHORE WE BUOY 2211      79                N/A     4/ 7   3/ 7
64NM E OF VA BCH 2250   79 77  200/ 10/ 14 1012.0R   5/ 7   5/ 7
DUCK PIER NC     2200   83 67  240/  7/  8 1011.6F
44100 DUCK FRF   2224      78                N/A     3/ 7
44056 DUCK FRF   2211      74                N/A     2/ 8
OREGON INLET NC  2200   82 84  210/ 15/ 18 1013.0R
HATTERAS NC      2200   80 82  210/ 11/ 16 1013.2F
DIAMOND SHLS NC  2250   81 83  220/ 17/ 21 1013.3S   5/ 8   3/ 8
CAPE LOOKOUT NC  2300   79     220/ 11/ 14 1013.7S
$$



USA.gov is the U.S. government's official web portal to all federal, state and local government web resources and services.